OBJECT L, 47423

Orbit data source: Space-Track

You're viewing an Uncataloged Satellite

Recently launched and/or uncataloged satellites may have evolving metadata. Metadata may include but not limited to: Owner, Maufacturer, Bus, Motor, and Mission.

OBJECT L, 47423 is a satellite in SSO that was launched on Sun, 24 Jan 2021 UTC launched from the Air Force Eastern Test Range (AFETR). Unknown objects in Earth's orbit typically refer to objects detected orbiting the Earth but have not yet been identified or cataloged. These objects could be anything from previously untracked satellites, spent rocket stages, debris from satellite collisions, or even natural meteoroids temporarily captured by Earth's gravity.

Loading next visibility...
Identifier
47423, 2021-006L
Orbit
SSO
Country
Flag of TBDTBD
Related business
Manufacturer
SpaceX/Seattle
Mission
Spacecraft
Bus & Motor
Unknown
Mass
~100 kg wet, ~100 kg dry
Launch date (UTC)
2021-01-24 (5 years ago)
Launch vehicle
Unknown
Launch site
Air Force Eastern Test Range (AFETR)
Object type
Unknown
Shape & HBR
Cyl, Unknown HBR
Radar Cross Section
0.110 m², Medium (>0.1 m² and < 1m²)

Expand to show TLE details & history
Last TLE update: 7 hours ago

TLE from 7 hours ago
0 OBJECT L
1 47423U 21006L   26126.94968784  .00005078  00000-0  15674-3 0  9997
2 47423  97.2255 174.4225 0010547 350.7639   9.3409 15.33950222293345
Epoch: 2026-05-06T22:47Z
TLE epoch observation values (Epoch: 2026-05-06T22:47:33.029Z)
Latitude
0.00003°
Longitude
-32.26796°
Altitude
460.033 km
Speed
7.641 km/s
True Right ascension
11h 37m 41s
True Declination
0° 00' 00"
Sunlit
Object was in full shadow at epoch
Visualization orbit readout
Latitude
Unknown
Longitude
Unknown
Altitude
Unknown
Speed
Unknown
Apparent Right ascension
Unknown
Apparent Declination
Unknown
Sunlit
N/A
Visualization observer readout
Local Sidereal Time
13:59:57
Azimuth
Unknown
Elevation
Unknown
Doppler factor
Unknown
Orbital elements
Apogee altitude
468.193 km
Perigee altitude
453.767 km
Semi-major axis
6,839.117 km
Eccentricity
0.00105
Inclination
97.2255°
RAAN
174.4225°
Arg. of periapsis
350.7639°
True anomaly
9.36054°
Mean anomaly
9.3409°
Eccentric anomaly
9.35072°
Mean motion
3.83745 °/min
Orbital period
93.81 mins
BSTAR
0.00015674
Loading maneuver chart data...
Computing Atmospheric mass density...

Documentation

Showing up to 5 results
|